Location: Lucerne Valley
(34.4439°N, 116.9669°E)
Time: 10:32:34
(UTC-08:00)

OTV 5 (USA 277) - Pass Details

Date: 13 October 2017
Orbit: 404 x 417 km, 43.0° (Epoch: 07 September)

Event Time Altitude Azimuth Distance (km) Brightness Sun altitude
Rises 03:25:36 0° 267° (W) 2,346 ? -10.1°
Reaches altitude 10° 03:27:52 10° 278° (W) 1,485 ? -10.5°
Maximum altitude 03:30:54 30° 342° (NNW) 769 ? -11.2°
Enters shadow 03:33:42 11° 44° (NE) 1,410 ? -11.7°
